Jaipur, India

11:09 AM IST on September 21, 2017 (GMT +0530)
Jaipur

Weather History for VIJP - March, 2013

Change the Weather History Date:

Saturday, March 30, 2013

  Actual Average Record
Temperature  
Mean Temperature 76 °F -  
Max Temperature 88 °F - - ()
Min Temperature 65 °F - - ()
Cooling Degree Days 12    
Growing Degree Days 26 (Base 50)    
Moisture  
Dew Point 53 °F    
Average Humidity 44    
Maximum Humidity 78    
Minimum Humidity 18    
Precipitation  
Precipitation 0.00 in - - ()
Sea Level Pressure  
Sea Level Pressure 29.84 in    
Wind  
Wind Speed 3 mph ()    
Max Wind Speed 10 mph    
Max Gust Speed 23 mph    
Visibility 2.0 miles    
Events      
T = Trace of Precipitation, MM = Missing Value Source: Averaged Metar Reports

Daily Weather History Graph

Daily Weather History Graph

Search for Another Location

Airport or City:

Trip Planner

Search our weather history database for the weather conditions in past years. The results will help you decide how hot, cold, wet, or windy it might be!

Date:

Astronomy

Mar. 30, 2013 Rise Set
Actual Time 6:19 AM IST 6:42 PM IST
Civil Twilight 5:56 AM IST 7:06 PM IST
Nautical Twilight 5:29 AM IST 7:33 PM IST
Astronomical Twilight 5:02 AM IST 8:01 PM IST
Moon 9:58 PM IST (3/30) 8:11 AM IST (3/30)
Length of Visible Light 13h 09m
Length of Day
12h 22m
Waning Gibbous, 89% of the Moon is Illuminated
Mar 30
Waning Gibbous
Apr 3
Last Quarter
Apr 10
New
Apr 18
First Quarter
Apr 26
Full

Hourly Weather History & Observations

Time (IST) Temp. Heat Index Dew Point Humidity Pressure Visibility Wind Dir Wind Speed Gust Speed Precip Events Conditions
12:00 AM 73.4 °F - 57.2 °F 57% 29.89 in 1.9 mi Calm Calm - N/A   Haze
1:00 AM 69.8 °F - 57.2 °F 64% 29.89 in 1.9 mi Calm Calm - N/A   Haze
2:00 AM 68.0 °F - 57.2 °F 68% 29.86 in 1.9 mi Calm Calm - N/A   Haze
2:30 AM 68 °F - 59 °F 64% 29.81 in 1 mi Calm Calm - -   Mist
2:30 AM 68.0 °F - 57.2 °F 68% 29.86 in 1.2 mi Calm Calm - N/A   Partly Cloudy
4:00 AM 66.2 °F - 59.0 °F 78% 29.83 in 0.9 mi Calm Calm - N/A   Partly Cloudy
5:00 AM 66.2 °F - 57.2 °F 73% 29.86 in 0.9 mi Calm Calm - N/A   Partly Cloudy
5:30 AM 67 °F - 58 °F 64% 29.80 in 1 mi Calm Calm - -   Mist
6:00 AM 66.2 °F - 57.2 °F 73% 29.86 in 1.2 mi Calm Calm - N/A   Partly Cloudy
7:00 AM 66.2 °F - 59.0 °F 78% 29.89 in 1.2 mi WNW 3.5 mph - N/A   Partly Cloudy
8:00 AM 71.6 °F - 59.0 °F 64% 29.89 in 1.6 mi Calm Calm - N/A   Haze
8:30 AM 73 °F - 58 °F 50% 29.84 in 1 mi Calm Calm - -   Haze
9:00 AM 75.2 °F - 57.2 °F 53% 29.92 in 1.6 mi Variable 3.5 mph - N/A   Haze
10:00 AM 77.0 °F - 53.6 °F 44% 29.92 in 2.5 mi WNW 4.6 mph - N/A   Haze
10:30 AM 78.8 °F - 53.6 °F 42% 29.92 in 2.5 mi Variable 8.1 mph - N/A   Haze
11:00 AM 82.4 °F 81.4 °F 53.6 °F 37% 29.92 in 2.5 mi Variable 6.9 mph - N/A   Haze
11:30 AM 82 °F - 53 °F 26% 29.81 in 1 mi WNW 6.9 mph - -   Haze
12:00 PM 80.6 °F - 51.8 °F 37% 29.89 in 2.5 mi Variable 6.9 mph - N/A   Haze
1:00 PM 82.4 °F - 51.8 °F 35% 29.89 in 2.5 mi West 6.9 mph - N/A   Haze
1:30 PM 84.2 °F - 51.8 °F 33% 29.86 in 2.5 mi Variable 5.8 mph - N/A   Haze
2:00 PM 84.2 °F - 50.0 °F 30% 29.86 in 2.5 mi WNW 9.2 mph - N/A   Haze
2:30 PM 86 °F - 49 °F 18% 29.76 in 2 mi West 10.4 mph - -   Haze
2:30 PM 86.0 °F - 48.2 °F 27% 29.83 in 2.5 mi West 10.4 mph - N/A   Haze
3:00 PM 86.0 °F - 48.2 °F 27% 29.83 in 2.5 mi WNW 10.4 mph - N/A   Haze
4:00 PM 86.0 °F - 48.2 °F 27% 29.80 in 2.5 mi WNW 10.4 mph 23.0 mph N/A   Haze
4:30 PM 86.0 °F - 48.2 °F 27% 29.80 in 2.5 mi Variable 8.1 mph - N/A   Haze
5:00 PM 86.0 °F - 48.2 °F 27% 29.80 in 2.5 mi WNW 6.9 mph - N/A   Haze
5:30 PM 86 °F - 52 °F 21% 29.72 in 2 mi NW 6.9 mph - -   Haze
6:00 PM 84.2 °F - 48.2 °F 29% 29.80 in 2.5 mi NW 6.9 mph - N/A   Haze
6:30 PM 84.2 °F - 48.2 °F 29% 29.80 in 2.5 mi NW 5.8 mph - N/A   Haze
7:00 PM 82.4 °F - 48.2 °F 30% 29.80 in 2.5 mi Variable 5.8 mph - N/A   Haze
8:00 PM 82.4 °F - 50.0 °F 32% 29.83 in 2.5 mi Variable 3.5 mph - N/A   Haze
8:30 PM 80 °F - 50 °F 25% 29.77 in 2 mi Calm Calm - -   Haze
9:00 PM 80.6 °F - 50.0 °F 34% 29.86 in 2.5 mi Variable 3.5 mph - N/A   Haze
10:00 PM 77.0 °F - 50.0 °F 39% 29.86 in 2.5 mi Calm Calm - N/A   Haze
11:00 PM 75.2 °F - 51.8 °F 44% 29.89 in 2.5 mi Calm Calm - N/A   Haze
11:30 PM 73 °F - 52 °F 37% 29.81 in 2 mi Calm Calm - -   Haze